Weather History for Billings, MT

Change the Weather History Date:

Thursday, May 2, 2013

  Actual Average Record
Temperature  
Mean Temperature 49 °F 51 °F  
Max Temperature 64 °F 63 °F 90 °F (1985)
Min Temperature 33 °F 39 °F 14 °F (1954)
Degree Days  
Heating Degree Days 16 14  
Month to date heating degree days 43 28  
Since 1 July heating degree days 6135 6405  
Cooling Degree Days 0 0  
Month to date cooling degree days 0 0  
Year to date cooling degree days 0 1  
Moisture  
Dew Point 19 °F    
Average Humidity 43    
Maximum Humidity 69    
Minimum Humidity 16    
Precipitation  
Precipitation 0.00 in 0.07 in 0.70 in (1955)
Month to date precipitation T 0.13  
Year to date precipitation 2.16 3.81  
Snow  
Snow 0.00 in 0.20 in 1.20 in (1967)
Month to date snowfall T 0.3  
Since 1 July snowfall 40.4 53.3  
Snow Depth 0.00 in    
Sea Level Pressure  
Sea Level Pressure 30.48 in    
Wind  
Wind Speed 13 mph (SW)    
Max Wind Speed 21 mph    
Max Gust Speed 28 mph    
Visibility 10 miles    
Events      
T = Trace of Precipitation, MM = Missing Value Source: NWS Daily Summary

Daily Weather History Graph

Daily Weather History Graph

Search for Another Location

Airport:

Trip Planner

Search our weather history database for the weather conditions in past years. The results will help you decide how hot, cold, wet, or windy it might be!

Date:

Astronomy

May. 02, 2013 Rise Set
Actual Time 5:59 AM MDT 8:23 PM MDT
Civil Twilight 5:26 AM MDT 8:56 PM MDT
Nautical Twilight 4:45 AM MDT 9:38 PM MDT
Astronomical Twilight 3:58 AM MDT 10:25 PM MDT
Moon 2:11 AM MDT (5/2) 12:54 PM MDT (5/2)
Length of Visible Light 15h 30m
Length of Day
14h 23m
Waning Gibbous, 47% of the Moon is Illuminated
May 2
Waning Gibbous
May 9
New
May 17
First Quarter
May 24
Full
May 31
Last Quarter

Hourly Weather History & Observations

Time (MDT) Temp. Windchill Dew Point Humidity Pressure Visibility Wind Dir Wind Speed Gust Speed Precip Events Conditions
12:53 AM 39.0 °F - 21.0 °F 49% 30.63 in 10.0 mi Calm Calm - 0.00 in   Scattered Clouds
1:53 AM 37.9 °F 33.5 °F 21.0 °F 51% 30.63 in 10.0 mi SSW 5.8 mph - N/A   Partly Cloudy
2:53 AM 35.1 °F 27.4 °F 21.0 °F 57% 30.63 in 10.0 mi SW 10.4 mph - N/A   Partly Cloudy
3:53 AM 35.1 °F 25.5 °F 21.9 °F 59% 30.63 in 10.0 mi SW 15.0 mph - N/A   Clear
4:53 AM 35.1 °F 25.5 °F 21.9 °F 59% 30.63 in 10.0 mi SW 15.0 mph - N/A   Partly Cloudy
5:53 AM 34.0 °F 23.8 °F 23.0 °F 64% 30.65 in 10.0 mi WSW 16.1 mph - N/A   Partly Cloudy
6:53 AM 34.0 °F 23.4 °F 24.1 °F 67% 30.65 in 10.0 mi SW 17.3 mph - N/A   Clear
7:53 AM 37.0 °F 27.0 °F 25.0 °F 62% 30.65 in 10.0 mi WSW 18.4 mph - N/A   Clear
8:53 AM 41.0 °F 32.5 °F 26.1 °F 55% 30.65 in 10.0 mi WSW 17.3 mph - N/A   Clear
9:53 AM 46.9 °F - 23.0 °F 39% 30.61 in 10.0 mi WSW 13.8 mph 20.7 mph N/A   Clear
10:53 AM 51.1 °F - 19.9 °F 29% 30.58 in 10.0 mi SW 10.4 mph 18.4 mph N/A   Clear
11:53 AM 53.1 °F - 18.0 °F 25% 30.55 in 10.0 mi SW 13.8 mph 20.7 mph N/A   Clear
12:53 PM 55.9 °F - 17.1 °F 22% 30.49 in 10.0 mi West 15.0 mph 20.7 mph N/A   Clear
1:30 PM 55.9 °F - 15.1 °F 20% 30.45 in 10.0 mi SSW 16.1 mph 23.0 mph N/A   Clear
1:53 PM 57.0 °F - 16.0 °F 20% 30.46 in 10.0 mi SSW 12.7 mph 20.7 mph N/A   Clear
2:53 PM 59.0 °F - 16.0 °F 19% 30.43 in 10.0 mi SW 11.5 mph 20.7 mph N/A   Clear
3:53 PM 62.1 °F - 15.1 °F 16% 30.38 in 10.0 mi SW 16.1 mph 24.2 mph N/A   Clear
4:53 PM 63.0 °F - 16.0 °F 16% 30.35 in 10.0 mi SW 15.0 mph 21.9 mph N/A   Clear
5:53 PM 63.0 °F - 17.1 °F 17% 30.32 in 10.0 mi SSW 13.8 mph 19.6 mph N/A   Clear
6:53 PM 62.1 °F - 18.0 °F 18% 30.30 in 10.0 mi SW 11.5 mph - N/A   Clear
7:53 PM 60.1 °F - 17.1 °F 19% 30.28 in 10.0 mi South 8.1 mph - N/A   Clear
8:53 PM 57.0 °F - 17.1 °F 21% 30.28 in 10.0 mi SW 5.8 mph - N/A   Clear
9:53 PM 52.0 °F - 19.9 °F 28% 30.27 in 10.0 mi South 8.1 mph - N/A   Clear
10:53 PM 51.1 °F - 16.0 °F 25% 30.25 in 10.0 mi WSW 15.0 mph - N/A   Clear
11:53 PM 50.0 °F - 16.0 °F 26% 30.23 in 10.0 mi WSW 15.0 mph - N/A   Clear